VIV1209 MMMY-MMGL

Flight info

Callsign VIV1209
Flight time 1h 1m
Altitude 32000
Route URTOB1A URTOB UJ11 MEZCA MEZCA1B
Aircraft A320/M-SDE3FGHIRWY/LB1

Departure

Time 2026-04-22 01:44
Airport Monterrey International Airport (MMMY)

Arrival

Time 2026-04-22 02:45
Airport Guadalajara International Airport (MMGL)
Time Latitude Longitude Altitude Speed Heading
2026-04-22 01:14 25.78039 -100.11822 1281 ft 0 kts 211°
2026-04-22 01:34 25.78049 -100.11816 1283 ft 3 kts 211°
2026-04-22 01:34 25.78064 -100.11806 1281 ft 3 kts 211°
2026-04-22 01:35 25.78079 -100.11795 1281 ft 3 kts 201°
2026-04-22 01:35 25.78096 -100.11792 1282 ft 3 kts 164°
2026-04-22 01:35 25.78105 -100.11794 1282 ft 0 kts 146°
2026-04-22 01:39 25.78094 -100.11795 1281 ft 5 kts 203°
2026-04-22 01:39 25.78117 -100.11849 1282 ft 9 kts 302°
2026-04-22 01:39 25.78170 -100.11873 1281 ft 9 kts 22°
2026-04-22 01:39 25.78204 -100.11851 1281 ft 4 kts 31°
2026-04-22 01:40 25.78235 -100.11831 1282 ft 6 kts 31°
2026-04-22 01:40 25.78276 -100.11804 1282 ft 8 kts 31°
2026-04-22 01:40 25.78316 -100.11776 1283 ft 0 kts 33°
2026-04-22 01:41 25.78319 -100.11774 1282 ft 2 kts 33°
2026-04-22 01:41 25.78338 -100.11761 1281 ft 7 kts 29°
2026-04-22 01:41 25.78399 -100.11711 1281 ft 11 kts 61°
2026-04-22 01:41 25.78382 -100.11654 1282 ft 0 kts 122°
2026-04-22 01:43 25.78287 -100.11482 1281 ft 60 kts 121°
2026-04-22 01:43 25.77965 -100.10891 1280 ft 116 kts 121°
2026-04-22 01:43 25.77470 -100.09973 1278 ft 159 kts 119°
2026-04-22 01:43 25.76865 -100.08905 1733 ft 165 kts 121°
2026-04-22 01:44 25.76264 -100.07805 2357 ft 167 kts 119°
2026-04-22 01:44 25.75680 -100.06646 2798 ft 182 kts 119°
2026-04-22 01:44 25.75039 -100.05341 3146 ft 202 kts 121°
2026-04-22 01:44 25.74325 -100.03913 3447 ft 222 kts 121°
2026-04-22 01:45 25.73497 -100.02343 3657 ft 250 kts 120°
2026-04-22 01:45 25.72606 -100.00581 4158 ft 266 kts 120°
2026-04-22 01:45 25.71607 -99.98875 5102 ft 265 kts 134°
2026-04-22 01:45 25.70106 -99.97690 5888 ft 269 kts 158°
2026-04-22 01:46 25.68225 -99.97330 6604 ft 277 kts 184°
2026-04-22 01:46 25.66374 -99.97949 7285 ft 283 kts 211°
2026-04-22 01:46 25.64940 -99.99438 8015 ft 285 kts 236°
2026-04-22 01:46 25.63837 -100.01271 8792 ft 287 kts 238°
2026-04-22 01:47 25.62741 -100.03126 9567 ft 288 kts 238°
2026-04-22 01:47 25.61639 -100.04992 10282 ft 291 kts 239°
2026-04-22 01:47 25.60497 -100.06929 10531 ft 312 kts 239°
2026-04-22 01:47 25.59266 -100.09010 10637 ft 334 kts 238°
2026-04-22 01:48 25.57960 -100.11205 10943 ft 347 kts 238°
2026-04-22 01:48 25.56618 -100.13452 11501 ft 351 kts 238°
2026-04-22 01:48 25.55267 -100.15709 12124 ft 353 kts 238°
2026-04-22 01:48 25.53906 -100.17978 12758 ft 354 kts 239°
2026-04-22 01:49 25.52542 -100.20254 13420 ft 356 kts 239°
2026-04-22 01:49 25.51173 -100.22541 14058 ft 357 kts 239°
2026-04-22 01:49 25.49796 -100.24839 14623 ft 359 kts 238°
2026-04-22 01:49 25.48408 -100.27154 15059 ft 363 kts 239°
2026-04-22 01:50 25.47013 -100.29480 15689 ft 363 kts 239°
2026-04-22 01:50 25.45616 -100.31807 16302 ft 364 kts 238°
2026-04-22 01:50 25.44212 -100.34145 16867 ft 366 kts 238°
2026-04-22 01:50 25.42665 -100.36388 17451 ft 371 kts 227°
2026-04-22 01:51 25.40717 -100.38278 18042 ft 373 kts 223°
2026-04-22 01:51 25.38731 -100.40142 18568 ft 376 kts 223°
2026-04-22 01:51 25.36740 -100.42029 19045 ft 378 kts 224°
2026-04-22 01:51 25.34723 -100.43912 19558 ft 380 kts 224°
2026-04-22 01:52 25.32688 -100.45792 20055 ft 383 kts 223°
2026-04-22 01:52 25.30636 -100.47683 20536 ft 385 kts 224°
2026-04-22 01:52 25.28569 -100.49586 21003 ft 389 kts 224°
2026-04-22 01:52 25.26488 -100.51507 21480 ft 391 kts 224°
2026-04-22 01:53 25.24397 -100.53442 21932 ft 393 kts 224°
2026-04-22 01:53 25.22264 -100.55420 22383 ft 396 kts 224°
2026-04-22 01:53 25.20151 -100.57381 22808 ft 398 kts 225°
2026-04-22 01:53 25.18028 -100.59355 23247 ft 400 kts 225°
2026-04-22 01:54 25.15893 -100.61339 23753 ft 398 kts 225°
2026-04-22 01:54 25.13822 -100.63250 24822 ft 378 kts 225°
2026-04-22 01:54 25.11856 -100.65058 25922 ft 358 kts 225°
2026-04-22 01:54 25.09995 -100.66766 27042 ft 337 kts 226°
2026-04-22 01:55 25.08245 -100.68376 28052 ft 320 kts 226°
2026-04-22 01:55 25.06554 -100.69943 28622 ft 316 kts 226°
2026-04-22 01:55 25.04877 -100.71506 29056 ft 316 kts 227°
2026-04-22 01:55 25.03190 -100.73083 29264 ft 322 kts 227°
2026-04-22 01:56 25.01456 -100.74704 29398 ft 331 kts 226°
2026-04-22 01:56 24.99678 -100.76361 29528 ft 339 kts 226°
2026-04-22 01:56 24.97854 -100.78053 29664 ft 347 kts 226°
2026-04-22 01:56 24.95984 -100.79782 29805 ft 355 kts 226°
2026-04-22 01:57 24.94069 -100.81548 29946 ft 363 kts 226°
2026-04-22 01:57 24.92110 -100.83351 30074 ft 370 kts 226°
2026-04-22 01:57 24.90112 -100.85189 30203 ft 378 kts 226°
2026-04-22 01:57 24.88074 -100.87067 30308 ft 385 kts 226°
2026-04-22 01:58 24.86001 -100.88978 30420 ft 392 kts 226°
2026-04-22 01:58 24.83892 -100.90923 30542 ft 400 kts 225°
2026-04-22 01:58 24.81738 -100.92910 30653 ft 407 kts 225°
2026-04-22 01:58 24.79494 -100.94846 30850 ft 416 kts 218°
2026-04-22 01:59 24.77793 -100.95935 31049 ft 419 kts 216°
2026-04-22 01:59 24.75252 -100.97504 31432 ft 419 kts 216°
2026-04-22 01:59 24.72712 -100.99065 31841 ft 418 kts 216°
2026-04-22 01:59 24.70164 -101.00631 31994 ft 422 kts 216°
2026-04-22 02:00 24.64941 -101.03845 32027 ft 438 kts 216°
2026-04-22 02:00 24.59535 -101.07161 32017 ft 449 kts 215°
2026-04-22 02:01 24.54051 -101.10497 32019 ft 451 kts 215°
2026-04-22 02:01 24.48561 -101.13836 32009 ft 450 kts 215°
2026-04-22 02:02 24.43074 -101.17175 32004 ft 451 kts 215°
2026-04-22 02:02 24.37578 -101.20525 31997 ft 452 kts 215°
2026-04-22 02:03 24.32076 -101.23874 31992 ft 452 kts 215°
2026-04-22 02:03 24.26539 -101.27242 31982 ft 453 kts 215°
2026-04-22 02:04 24.18272 -101.32257 31971 ft 453 kts 215°
2026-04-22 02:05 24.12755 -101.35598 31963 ft 453 kts 214°
2026-04-22 02:05 24.07238 -101.38940 31960 ft 453 kts 214°
2026-04-22 02:06 24.01716 -101.42281 31967 ft 454 kts 214°
2026-04-22 02:06 23.96190 -101.45623 31965 ft 454 kts 214°
2026-04-22 02:07 23.90660 -101.48963 31967 ft 454 kts 214°
2026-04-22 02:07 23.85139 -101.52301 31964 ft 453 kts 214°
2026-04-22 02:08 23.79616 -101.55633 31963 ft 454 kts 214°
2026-04-22 02:08 23.74089 -101.58963 31959 ft 454 kts 214°
2026-04-22 02:09 23.68561 -101.62281 31959 ft 454 kts 214°
2026-04-22 02:09 23.63032 -101.65603 31959 ft 454 kts 214°
2026-04-22 02:10 23.57448 -101.68830 31956 ft 458 kts 208°
2026-04-22 02:10 23.51343 -101.71013 31951 ft 463 kts 203°
2026-04-22 02:11 23.45199 -101.73114 31945 ft 462 kts 203°
2026-04-22 02:11 23.39060 -101.75220 31940 ft 462 kts 203°
2026-04-22 02:12 23.32919 -101.77324 31937 ft 462 kts 203°
2026-04-22 02:12 23.26769 -101.79421 31935 ft 463 kts 203°
2026-04-22 02:13 23.20626 -101.81510 31944 ft 463 kts 203°
2026-04-22 02:13 23.14470 -101.83604 31943 ft 463 kts 203°
2026-04-22 02:14 23.08318 -101.85698 31946 ft 463 kts 203°
2026-04-22 02:14 23.02168 -101.87789 31942 ft 464 kts 203°
2026-04-22 02:15 22.96005 -101.89890 31947 ft 464 kts 203°
2026-04-22 02:15 22.89846 -101.91989 31948 ft 464 kts 203°
2026-04-22 02:16 22.83679 -101.94081 31949 ft 464 kts 203°
2026-04-22 02:16 22.77469 -101.96180 31943 ft 464 kts 203°
2026-04-22 02:17 22.71300 -101.98263 31941 ft 464 kts 203°
2026-04-22 02:17 22.65133 -102.00348 31935 ft 464 kts 203°
2026-04-22 02:18 22.58963 -102.02433 31937 ft 465 kts 203°
2026-04-22 02:18 22.52784 -102.04519 31936 ft 465 kts 202°
2026-04-22 02:19 22.46600 -102.06601 31937 ft 466 kts 202°
2026-04-22 02:19 22.40411 -102.08683 31938 ft 466 kts 202°
2026-04-22 02:20 22.34212 -102.10767 31943 ft 467 kts 202°
2026-04-22 02:20 22.28004 -102.12859 31946 ft 467 kts 202°
2026-04-22 02:21 22.21802 -102.14947 31948 ft 467 kts 202°
2026-04-22 02:21 22.15586 -102.17037 31944 ft 468 kts 202°
2026-04-22 02:22 22.09369 -102.19120 31952 ft 468 kts 202°
2026-04-22 02:22 22.03146 -102.21203 31974 ft 468 kts 202°
2026-04-22 02:23 21.96922 -102.23288 32060 ft 469 kts 202°
2026-04-22 02:23 21.90691 -102.25377 32143 ft 469 kts 202°
2026-04-22 02:24 21.84408 -102.27476 32231 ft 470 kts 202°
2026-04-22 02:24 21.78168 -102.29556 32301 ft 470 kts 202°
2026-04-22 02:25 21.72002 -102.31817 32285 ft 464 kts 210°
2026-04-22 02:25 21.66714 -102.35629 32292 ft 457 kts 222°
2026-04-22 02:26 21.61723 -102.39853 32268 ft 452 kts 222°
2026-04-22 02:26 21.59280 -102.41908 31980 ft 441 kts 222°
2026-04-22 02:26 21.56876 -102.43925 31695 ft 436 kts 222°
2026-04-22 02:26 21.54481 -102.45936 30859 ft 439 kts 222°
2026-04-22 02:27 21.52058 -102.47975 29745 ft 447 kts 222°
2026-04-22 02:27 21.49603 -102.50046 28847 ft 448 kts 222°
2026-04-22 02:27 21.47169 -102.52094 28278 ft 441 kts 221°
2026-04-22 02:27 21.44764 -102.54115 27607 ft 437 kts 221°
2026-04-22 02:28 21.42379 -102.56119 26957 ft 433 kts 221°
2026-04-22 02:28 21.40017 -102.58104 26353 ft 430 kts 221°
2026-04-22 02:28 21.37673 -102.60075 25748 ft 427 kts 221°
2026-04-22 02:28 21.35344 -102.62032 25148 ft 424 kts 221°
2026-04-22 02:29 21.33022 -102.63981 24520 ft 423 kts 221°
2026-04-22 02:29 21.30707 -102.65923 23876 ft 422 kts 221°
2026-04-22 02:29 21.28399 -102.67858 23255 ft 420 kts 220°
2026-04-22 02:29 21.26114 -102.69774 22852 ft 416 kts 220°
2026-04-22 02:30 21.23815 -102.71703 21842 ft 422 kts 220°
2026-04-22 02:30 21.21517 -102.73625 21319 ft 416 kts 220°
2026-04-22 02:30 21.19242 -102.75524 20737 ft 413 kts 219°
2026-04-22 02:30 21.16986 -102.77408 20182 ft 410 kts 219°
2026-04-22 02:31 21.14675 -102.79186 19604 ft 409 kts 212°
2026-04-22 02:31 21.12082 -102.80434 19037 ft 411 kts 199°
2026-04-22 02:31 21.10201 -102.80914 18635 ft 412 kts 190°
2026-04-22 02:31 21.07343 -102.81046 17995 ft 414 kts 176°
2026-04-22 02:32 21.04487 -102.80649 17367 ft 412 kts 173°
2026-04-22 02:32 21.01652 -102.80222 16749 ft 410 kts 173°
2026-04-22 02:32 20.98835 -102.79804 16096 ft 408 kts 173°
2026-04-22 02:32 20.96015 -102.79389 15387 ft 409 kts 173°
2026-04-22 02:33 20.93206 -102.78958 14825 ft 405 kts 172°
2026-04-22 02:33 20.90426 -102.78512 14223 ft 403 kts 172°
2026-04-22 02:33 20.87687 -102.78059 13777 ft 396 kts 171°
2026-04-22 02:33 20.84973 -102.77609 13144 ft 392 kts 172°
2026-04-22 02:34 20.82324 -102.77174 12936 ft 377 kts 172°
2026-04-22 02:34 20.79778 -102.76933 12872 ft 359 kts 184°
2026-04-22 02:34 20.77389 -102.77406 12792 ft 342 kts 200°
2026-04-22 02:34 20.75274 -102.78528 12735 ft 342 kts 212°
2026-04-22 02:35 20.73235 -102.79854 12647 ft 344 kts 212°
2026-04-22 02:35 20.71197 -102.81190 12573 ft 344 kts 213°
2026-04-22 02:35 20.69157 -102.82529 12498 ft 343 kts 213°
2026-04-22 02:35 20.67121 -102.83862 12422 ft 343 kts 213°
2026-04-22 02:36 20.65086 -102.85193 12347 ft 343 kts 213°
2026-04-22 02:36 20.63050 -102.86525 12272 ft 343 kts 213°
2026-04-22 02:36 20.60989 -102.87874 12034 ft 343 kts 213°
2026-04-22 02:36 20.58957 -102.89202 11530 ft 343 kts 213°
2026-04-22 02:37 20.56918 -102.90533 11004 ft 343 kts 213°
2026-04-22 02:37 20.54887 -102.91860 10630 ft 339 kts 214°
2026-04-22 02:37 20.52915 -102.93149 10517 ft 326 kts 214°
2026-04-22 02:37 20.51022 -102.94387 10430 ft 313 kts 214°
2026-04-22 02:38 20.49191 -102.95585 10317 ft 304 kts 214°
2026-04-22 02:38 20.47411 -102.96743 10194 ft 296 kts 214°
2026-04-22 02:38 20.45682 -102.97868 10071 ft 287 kts 214°
2026-04-22 02:38 20.43999 -102.98964 9878 ft 282 kts 214°
2026-04-22 02:39 20.42355 -103.00133 9341 ft 286 kts 225°
2026-04-22 02:39 20.41240 -103.01852 8939 ft 282 kts 252°
2026-04-22 02:39 20.40986 -103.03857 8858 ft 268 kts 277°
2026-04-22 02:39 20.41476 -103.05711 8878 ft 254 kts 294°
2026-04-22 02:40 20.42186 -103.07383 8828 ft 243 kts 294°
2026-04-22 02:40 20.42876 -103.09011 8600 ft 240 kts 294°
2026-04-22 02:40 20.43563 -103.10638 8337 ft 242 kts 293°
2026-04-22 02:40 20.44253 -103.12276 8058 ft 242 kts 293°
2026-04-22 02:41 20.44936 -103.13895 7793 ft 235 kts 293°
2026-04-22 02:41 20.45594 -103.15456 7535 ft 226 kts 293°
2026-04-22 02:41 20.46223 -103.16948 7286 ft 216 kts 293°
2026-04-22 02:41 20.46824 -103.18372 7078 ft 204 kts 292°
2026-04-22 02:42 20.47377 -103.19686 6852 ft 184 kts 292°
2026-04-22 02:42 20.47876 -103.20870 6654 ft 169 kts 292°
2026-04-22 02:42 20.48345 -103.21984 6481 ft 160 kts 292°
2026-04-22 02:42 20.48786 -103.23033 6325 ft 150 kts 292°
2026-04-22 02:43 20.49208 -103.24035 6161 ft 147 kts 292°
2026-04-22 02:43 20.49629 -103.25037 5990 ft 146 kts 292°
2026-04-22 02:43 20.50047 -103.26031 5783 ft 148 kts 290°
2026-04-22 02:43 20.50470 -103.27036 5574 ft 149 kts 288°
2026-04-22 02:44 20.50895 -103.28045 5342 ft 149 kts 288°
2026-04-22 02:44 20.51332 -103.29053 5154 ft 147 kts 283°
2026-04-22 02:44 20.51675 -103.29988 5029 ft 113 kts 289°
2026-04-22 02:44 20.51946 -103.30573 5028 ft 58 kts 297°
2026-04-22 02:45 20.52069 -103.30766 5030 ft 22 kts 318°
2026-04-22 02:45 20.52175 -103.30873 5030 ft 21 kts 320°
2026-04-22 02:45 20.52264 -103.30933 5030 ft 13 kts 327°
2026-04-22 02:45 20.52340 -103.30988 5030 ft 13 kts 333°
2026-04-22 02:46 20.52416 -103.30957 5027 ft 13 kts 57°
2026-04-22 02:46 20.52455 -103.30867 5028 ft 14 kts 65°
2026-04-22 02:46 20.52469 -103.30762 5029 ft 15 kts 95°
2026-04-22 02:46 20.52431 -103.30659 5029 ft 15 kts 115°
2026-04-22 02:47 20.52387 -103.30553 5029 ft 16 kts 114°
2026-04-22 02:47 20.52371 -103.30442 5027 ft 16 kts 50°
2026-04-22 02:47 20.52453 -103.30379 5029 ft 15 kts 69°
2026-04-22 02:47 20.52427 -103.30278 5029 ft 14 kts 109°
2026-04-22 02:48 20.52397 -103.30173 5029 ft 15 kts 105°
2026-04-22 02:48 20.52362 -103.30066 5029 ft 15 kts 112°
2026-04-22 02:48 20.52352 -103.30006 5029 ft 6 kts 39°
2026-04-22 02:48 20.52394 -103.29989 5029 ft 6 kts 19°
2026-04-22 02:49 20.52404 -103.29985 5029 ft 0 kts 19°